Home > Weather > Pully > Past weeks

Flag for Switzerland Past Weather in Pully, Vaud, Switzerland — Yesterday and Last 2 Weeks

Now
59 °F

Sprinkles. Overcast.


Feels Like: 57 °F
Forecast: 48 / 67 °F
Wind: 12 mph from Southwest

Location: Payerne

Current Time: May 31, 2016 at 4:13:18 PM

Latest Report: May 31, 2016 at 2:00 PM


Visibility: 11 mi

Pressure: 29.89 "Hg

Humidity: 73%

Dew Point: 50 °F

Location of PullyLocation

Past Weather in Pully — Graph

°F

Pully Temperature Yesterday

Maximum temperature yesterday: 60 °F (at 11:00 AM)
Minimum temperature yesterday: 54 °F (at 6:00 AM)
Average temperature yesterday: 56 °F

High & Low Weather Summary for the Past Weeks

 TemperatureHumidityPressure
High79 °F (May 27, 5:00 PM)97% (May 25, 4:00 AM)30.23 "Hg (May 25, 4:00 AM)
Low39 °F (May 20, 6:00 AM)36% (May 18, 6:00 PM)29.72 "Hg (May 29, 11:00 AM)
Average56 °F77%29.96 "Hg
* Reported May 16 5:00 PM — May 31 2:00 PM, Pully, Weather by CustomWeather, © 2016

Note: Actual official high and low records may vary slightly from our data, if they occured in-between our weather recording intervals... More about our weather records

Advertising

Pully Weather History for the Previous 24 Hours

Scroll right to see more
 ConditionsComfort  
Time TempWeatherWind HumidityBarometerVisibility
2:00 PM
Tue, May 31
59 °FSprinkles. Overcast.12 mph73%29.89 "Hg11 mi
1:00 PM59 °FCool.9 mph73%29.89 "HgN/A
12:00 PM57 °FCool.10 mph79%29.90 "HgN/A
11:00 AM57 °FLow clouds.10 mph79%29.88 "Hg12 mi
10:00 AM57 °FCool.12 mph80%29.88 "HgN/A
9:00 AM55 °FCool.10 mph86%29.88 "HgN/A
8:00 AM53 °FLight rain. Low clouds.8 mph91%29.88 "Hg9 mi
7:00 AM53 °FCool.6 mph93%29.87 "HgN/A
6:00 AM53 °FCool.8 mph91%29.85 "HgN/A
5:00 AM54 °FCool.8 mph88%29.85 "HgN/A
4:00 AM54 °FCool.8 mph87%29.84 "HgN/A
3:00 AM55 °FCool.10 mph84%29.84 "HgN/A
2:00 AM55 °FFog.8 mph86%29.83 "Hg4 mi
1:00 AM56 °FCool.10 mph85%29.84 "HgN/A
12:00 AM55 °FCool.10 mph88%29.85 "HgN/A
11:00 PM
Mon, May 30
56 °FRain. Overcast.9 mph86%29.85 "Hg4 mi
10:40 PM56 °FRain. Overcast.7 mph82%29.85 "Hg4 mi
10:00 PM56 °FCool.7 mph82%29.84 "HgN/A
9:00 PM57 °FCool.9 mph76%29.82 "HgN/A
8:00 PM57 °FOvercast.12 mph79%29.81 "Hg14 mi
Weather by CustomWeather, © 2016

See weather overviewHow to use our weather pages